Wind_Speed
15 12 10 10 11 13 15 16 15 15 15 15 15 14 14 13 15 18 15 12 9 8 9 8 6 4 4 4 4 6 9 8 9
17 14 11 9 11 12 14 14 14 14 12 14 13 13 12 11 9 9 5 4 3 2 3 2 1 1 2 4 4 4 4 2 2
16 14 12 10 10 11 12 12 12 12 11 10 10 9 8 6 5 3 2 4 4 5 5 5 4 3 4 4 4 4 4 3 3
16 13 11 10 11 11 11 11 11 10 9 8 8 9 8 7 5 3 3 4 6 6 6 5 5 4 4 4 4 5 5 4 3
15 14 12 11 11 12 12 11 11 9 8 7 6 6 5 4 3 4 4 5 6 7 7 6 6 5 5 5 4 4 4 4 4
14 15 13 11 10 10 11 11 10 10 9 7 5 3 2 1 2 4 5 6 7 8 8 8 7 6 5 5 4 4 4 4 4
15 15 15 12 11 11 11 12 12 11 10 8 6 4 3 2 2 4 6 7 8 8 8 8 7 6 5 4 4 3 4 4 3
15 16 16 15 13 11 11 11 13 13 13 11 9 7 5 5 3 4 6 8 8 8 9 9 8 7 5 3 2 3 3 3 3
12 12 12 11 11 10 11 11 12 13 13 12 12 10 8 7 7 6 7 10 9 8 8 9 8 7 5 4 3 3 3 3 3
13 12 11 11 12 11 11 11 12 13 13 13 13 13 12 10 10 9 9 12 12 11 10 9 9 8 6 5 4 5 5 4 5
11 11 10 11 11 12 12 12 12 13 14 14 13 14 15 13 12 12 12 13 14 14 13 11 10 10 8 7 7 8 8 7 6
13 11 9 9 9 11 13 14 15 16 17 16 15 16 16 16 15 15 15 16 17 16 15 15 13 12 12 11 11 10 9 9 9
13 13 9 8 10 10 11 12 14 15 17 16 16 16 17 17 18 19 19 20 19 18 17 16 16 15 15 15 15 13 12 12 11
14 12 10 9 11 12 12 13 15 16 17 17 17 18 18 19 21 22 23 23 22 20 19 18 17 18 17 17 16 16 16 14 12
16 14 12 12 14 15 15 15 16 18 16 17 18 19 20 23 25 25 26 26 25 24 22 21 21 19 20 20 17 15 18 18 14
18 16 14 16 18 17 16 17 19 20 18 20 21 23 25 27 28 28 29 29 28 27 26 24 23 22 21 21 21 17 15 15 15
20 19 18 19 20 20 20 21 22 22 22 23 24 25 26 29 28 28 28 29 30 29 28 27 27 25 24 23 22 21 17 15 11
23 22 22 22 22 22 22 23 25 25 25 25 22 10 12 17 15 11 14 18 21 26 28 28 29 29 28 26 26 27 28 30 29
26 27 27 26 25 26 24 23 25 26 27 28 29 31 33 25 19 22 20 22 25 25 25 25 27 29 30 31 32 34 34 33 33
30 29 29 30 30 30 29 30 29 29 28 29 30 33 34 35 37 34 34 33 32 31 30 29 28 29 31 33 33 33 32 36 32
Wind_Direction
150 154 142 103 97 113 120 124 123 117 113 108 116 110 100 102 99 105 103 103 95 83 89 105 101 102 89 86 77 86 90 88 93
156 164 153 123 109 120 124 127 126 119 116 117 111 112 110 108 113 109 95 55 34 92 95 103 91 300 311 326 325 324 320 294 253
158 159 154 137 125 127 129 134 133 126 126 121 119 122 122 125 123 120 57 28 33 20 9 12 4 345 335 327 327 328 334 332 325
161 159 151 144 141 138 141 143 142 137 134 132 124 126 111 110 99 79 49 28 21 18 13 10 3 354 344 333 337 342 346 344 345
163 166 162 159 151 145 150 152 152 155 153 146 145 134 119 104 57 34 31 20 8 6 3 10 8 2 360 357 1 9 12 18 27
169 175 172 167 160 156 160 166 168 168 180 178 173 155 154 133 38 8 5 6 359 358 357 358 2 1 1 1 8 16 16 23 28
173 179 182 180 177 173 174 177 179 184 195 215 205 209 221 242 329 347 351 351 346 347 346 349 348 348 354 359 12 19 8 2 7
183 183 188 191 191 189 190 191 191 193 197 214 227 234 250 261 296 329 334 337 335 331 336 337 333 330 330 348 359 347 358 2 356
199 202 200 203 208 208 205 204 204 206 208 215 230 241 248 264 279 305 319 323 325 318 319 322 319 314 309 307 314 327 323 327 331
211 207 212 216 220 221 220 224 221 217 218 222 232 243 253 263 267 286 303 309 312 310 304 308 310 304 289 279 284 298 300 304 309
213 215 219 225 232 231 230 235 236 232 229 230 238 247 257 264 265 278 291 297 302 302 303 299 302 298 283 271 274 286 290 288 291
220 229 234 231 236 232 233 236 236 233 232 236 244 252 260 267 272 278 284 290 292 293 296 298 297 297 288 276 275 281 283 281 282
225 232 235 237 237 239 237 239 242 241 242 246 250 259 267 274 276 280 286 288 287 286 289 291 291 294 291 285 279 280 281 279 278
238 240 236 243 244 247 245 245 248 250 252 258 267 266 274 281 279 280 283 287 286 283 283 284 285 287 289 287 279 282 283 278 273
241 243 240 246 250 249 249 252 253 257 259 262 265 268 272 275 277 279 281 282 283 283 282 281 282 283 284 283 277 266 280 283 273
243 248 249 249 253 258 262 263 262 265 267 267 270 270 272 274 276 278 280 280 281 280 281 280 278 280 281 281 278 266 253 270 277
245 248 250 252 256 258 260 261 264 265 263 263 269 273 278 275 279 279 280 282 280 279 280 281 280 279 278 277 276 266 250 248 254
244 247 249 252 256 259 263 264 264 267 266 264 258 261 256 286 294 294 294 289 281 281 281 280 280 279 277 270 264 257 248 245 249
250 249 252 256 256 260 262 265 265 267 267 266 264 262 262 268 285 287 288 289 291 292 292 288 284 276 274 272 269 269 271 266 280
257 258 258 261 263 264 266 266 267 268 269 268 270 270 267 267 267 272 277 282 281 280 281 284 281 278 273 265 264 269 261 277 276
Height
1557 1559 1560 1561 1561 1561 1561 1562 1563 1564 1565 1565 1567 1567 1568 1569 1570 1569 1570 1571 1571 1571 1571 1570 1569 1569 1568 1568 1567 1567 1567 1567 1567
1557 1560 1561 1562 1563 1564 1564 1565 1566 1567 1567 1568 1569 1570 1571 1572 1572 1572 1572 1573 1573 1572 1571 1571 1570 1569 1569 1569 1568 1567 1567 1567 1566
1558 1560 1562 1563 1565 1566 1566 1567 1569 1569 1570 1570 1571 1572 1573 1574 1574 1574 1574 1574 1573 1572 1572 1571 1571 1570 1569 1569 1568 1568 1567 1566 1565
1559 1562 1563 1565 1567 1567 1568 1569 1570 1571 1572 1572 1573 1574 1575 1575 1575 1575 1576 1575 1575 1574 1573 1572 1571 1571 1570 1569 1568 1567 1567 1566 1566
1560 1562 1564 1566 1568 1569 1570 1571 1572 1573 1573 1574 1575 1576 1576 1576 1577 1576 1576 1576 1576 1575 1574 1573 1572 1571 1571 1570 1569 1567 1566 1566 1566
1560 1563 1565 1567 1568 1570 1571 1572 1572 1573 1574 1575 1576 1577 1578 1578 1578 1578 1577 1577 1576 1576 1575 1574 1573 1572 1572 1571 1570 1569 1568 1567 1567
1560 1563 1565 1567 1568 1570 1571 1572 1573 1574 1575 1575 1576 1578 1578 1579 1579 1578 1578 1577 1577 1576 1576 1575 1574 1573 1573 1572 1571 1571 1570 1569 1568
1560 1562 1564 1566 1567 1569 1571 1572 1574 1575 1576 1576 1576 1577 1579 1579 1579 1579 1579 1578 1578 1578 1577 1576 1575 1574 1573 1572 1572 1572 1571 1570 1570
1561 1563 1564 1566 1568 1569 1571 1572 1573 1574 1575 1576 1576 1577 1578 1579 1579 1579 1579 1579 1578 1578 1578 1577 1576 1575 1574 1574 1573 1572 1572 1571 1571
1560 1562 1564 1565 1567 1568 1570 1571 1572 1573 1574 1575 1575 1576 1576 1577 1578 1578 1578 1579 1579 1578 1578 1577 1576 1576 1575 1574 1574 1573 1573 1572 1571
1560 1562 1563 1564 1566 1567 1568 1570 1571 1573 1573 1574 1575 1575 1576 1576 1576 1577 1577 1578 1578 1577 1577 1576 1576 1576 1575 1574 1574 1574 1573 1573 1572
1559 1561 1562 1563 1565 1565 1566 1568 1569 1570 1571 1572 1573 1574 1574 1575 1575 1576 1576 1577 1577 1576 1576 1576 1575 1575 1575 1574 1574 1574 1573 1573 1572
1558 1559 1561 1562 1563 1564 1565 1566 1568 1569 1569 1571 1572 1572 1573 1573 1573 1574 1574 1574 1575 1575 1575 1574 1574 1574 1573 1573 1573 1572 1572 1572 1571
1555 1557 1559 1560 1561 1562 1563 1564 1566 1567 1568 1569 1570 1570 1570 1571 1571 1571 1571 1572 1572 1573 1573 1572 1572 1572 1572 1571 1571 1570 1570 1570 1570
1553 1555 1556 1558 1559 1560 1561 1562 1564 1565 1566 1566 1566 1566 1567 1568 1567 1568 1568 1568 1568 1569 1570 1570 1570 1570 1570 1570 1570 1570 1568 1567 1567
1550 1552 1553 1555 1555 1557 1558 1559 1560 1560 1562 1563 1562 1562 1563 1563 1563 1563 1563 1563 1564 1564 1565 1565 1566 1566 1567 1567 1567 1567 1568 1566 1565
1547 1548 1550 1552 1553 1553 1554 1555 1556 1557 1559 1559 1559 1558 1558 1557 1557 1558 1558 1558 1560 1560 1560 1561 1561 1562 1563 1563 1563 1562 1564 1564 1561
1542 1544 1546 1548 1549 1549 1550 1552 1553 1553 1555 1555 1557 1556 1553 1553 1553 1554 1554 1554 1555 1555 1556 1556 1557 1557 1558 1558 1557 1555 1553 1548 1553
1538 1540 1541 1542 1544 1545 1546 1548 1548 1549 1549 1550 1550 1551 1551 1551 1550 1550 1549 1551 1552 1552 1551 1550 1551 1551 1551 1551 1551 1551 1550 1550 1547
1532 1534 1535 1536 1538 1539 1541 1542 1543 1544 1544 1544 1545 1545 1545 1545 1545 1542 1543 1543 1543 1543 1543 1543 1544 1543 1543 1543 1543 1543 1545 1545 1545